Date,TemperatureHighF,TemperatureAvgF,TemperatureLowF,DewpointHighF,DewpointAvgF,DewpointLowF,HumidityHigh,HumidityAvg,HumidityLow,PressureMaxIn,PressureMinIn,WindSpeedMaxMPH,WindSpeedAvgMPH,GustSpeedMaxMPH,PrecipitationSumIn
2013-1-1,26,20,14,20,14,9,92,77,54,0.00,40.00,12,7,20,0.00
2013-1-2,30,20,10,21,14,9,98,80,51,0.00,40.00,16,7,21,0.00
2013-1-3,32,27,19,30,24,16,99,86,65,0.00,40.00,19,11,29,0.00
2013-1-4,35,25,15,28,21,13,98,87,66,0.00,40.00,30,12,36,0.00
2013-1-5,38,31,22,36,30,22,99,97,90,0.00,40.00,24,8,29,0.00
2013-1-6,37,28,21,36,26,20,99,89,77,0.00,40.00,22,11,29,0.00
2013-1-7,41,30,19,32,27,19,99,87,64,0.00,40.00,19,8,33,0.00
2013-1-8,47,37,29,37,32,28,95,84,62,0.00,40.00,16,7,26,0.00
2013-1-9,51,40,30,39,34,26,98,80,38,0.00,40.00,19,8,29,0.00
2013-1-10,52,37,27,50,35,26,99,94,60,0.00,40.00,13,4,21,0.00
2013-1-11,58,52,44,55,50,43,100,96,85,0.00,40.00,20,12,29,0.00
2013-1-12,54,42,28,52,39,28,99,89,75,0.00,40.00,24,12,33,0.00
2013-1-13,29,21,16,28,20,14,99,93,84,0.00,40.00,14,8,26,0.00
2013-1-14,27,19,15,20,15,-100,98,89,70,0.00,40.00,11,5,17,0.00
2013-1-15,32,24,13,25,20,13,99,84,62,0.00,40.00,8,2,13,0.00
2013-1-16,38,28,16,32,24,16,100,84,62,0.00,40.00,29,12,34,0.00
2013-1-17,37,32,25,34,26,18,99,80,54,0.00,40.00,21,8,26,0.00
2013-1-18,47,36,24,35,29,21,92,77,60,0.00,40.00,24,12,34,0.00
2013-1-19,52,44,36,40,36,25,85,75,63,0.00,40.00,32,17,42,0.00
2013-1-20,36,21,17,27,14,10,90,72,55,0.00,40.00,28,12,42,0.00
2013-1-21,18,12,7,15,5,0,91,76,54,0.00,40.00,23,14,31,0.00
2013-1-22,16,10,4,5,3,-1,89,71,56,0.00,40.00,14,8,19,0.00
2013-1-23,34,22,15,21,12,5,72,64,55,0.00,40.00,25,10,33,0.00
2013-1-24,25,18,9,13,8,3,88,65,49,0.00,40.00,21,9,35,0.00
2013-1-25,38,28,22,24,19,10,91,68,51,0.00,40.00,21,10,33,0.00
2013-1-26,33,24,14,20,15,11,88,69,51,0.00,40.00,19,5,24,0.00
2013-1-27,30,29,28,25,22,20,81,75,67,0.00,40.00,10,6,16,0.00
2013-1-28,58,49,44,57,49,43,99,99,99,0.00,40.00,15,4,22,0.00
2013-1-29,64,57,50,63,56,50,99,99,92,0.00,40.00,24,10,37,0.00
2013-1-30,52,35,21,52,34,17,99,95,82,0.00,40.00,27,13,38,0.00
2013-1-31,18,14,7,14,7,0,83,74,65,0.00,40.00,24,17,37,0.00
2013-2-1,22,12,4,20,4,-1,92,70,57,0.00,40.00,23,12,37,0.00
2013-2-2,29,23,18,27,20,13,99,90,76,0.00,40.00,17,9,29,0.00
2013-2-3,30,24,19,24,18,14,100,77,53,0.00,40.00,19,9,31,0.00
2013-2-4,39,30,23,30,24,18,95,80,64,0.00,40.00,19,9,26,0.00
2013-2-5,41,31,20,34,28,20,99,90,74,0.00,40.00,23,9,27,0.00
2013-2-6,47,37,27,35,32,26,99,82,62,0.00,40.00,11,5,21,0.00
2013-2-7,39,37,35,38,36,35,99,98,90,0.00,40.00,20,6,32,0.00
2013-2-8,36,30,27,35,28,25,99,92,86,0.00,40.00,21,9,33,0.00
2013-2-9,38,33,28,35,30,26,93,87,75,0.00,40.00,14,7,24,0.00
2013-2-10,50,43,37,50,42,33,99,95,61,0.00,40.00,36,14,54,0.00
2013-2-11,46,36,32,34,28,25,85,71,61,0.00,40.00,44,22,53,0.00
2013-2-12,40,33,28,31,28,27,96,84,63,0.00,40.00,11,5,18,0.00
2013-2-13,46,36,26,37,32,26,99,87,56,0.00,40.00,22,6,27,0.00
2013-2-14,42,39,36,38,35,32,98,85,70,0.00,40.00,26,12,39,0.00
2013-2-15,36,31,24,35,21,13,97,70,42,0.00,40.00,19,12,29,0.00
2013-2-16,29,23,16,18,14,10,83,70,55,0.00,40.00,17,10,24,0.00
2013-2-17,39,27,14,26,17,11,90,69,47,0.00,40.00,18,6,30,0.00
2013-2-18,55,42,27,50,36,24,99,81,66,0.00,40.00,33,14,41,0.00
2013-2-19,27,21,15,25,15,10,92,78,63,0.00,40.00,37,19,47,0.00
2013-2-20,25,17,8,18,11,4,93,77,54,0.00,40.00,18,9,27,0.00
2013-2-21,31,24,16,28,22,16,99,94,84,0.00,40.00,14,6,30,0.00
2013-2-22,34,31,28,33,29,25,99,94,83,0.00,40.00,30,12,39,0.00
2013-2-23,31,28,25,26,22,20,88,80,72,0.00,40.00,15,10,21,0.00
2013-2-24,40,29,19,29,24,19,99,83,56,0.00,40.00,10,3,12,0.00
2013-2-25,48,36,25,38,31,24,99,86,60,0.00,40.00,11,6,26,0.00
2013-2-26,36,34,32,34,33,32,100,95,84,0.00,40.00,20,10,35,0.00
2013-2-27,34,33,31,34,33,31,99,99,95,0.00,40.00,15,9,21,0.00
2013-2-28,37,35,33,34,33,31,99,93,81,0.00,40.00,15,10,23,0.00
2013-3-1,33,29,26,33,26,23,99,88,76,0.00,40.00,14,9,22,0.00
2013-3-2,30,26,20,23,17,10,88,67,47,0.00,40.00,16,10,25,0.00
2013-3-3,39,26,14,21,14,8,98,66,29,0.00,40.00,8,2,11,0.00
2013-3-4,39,33,27,33,26,14,91,75,56,0.00,40.00,18,8,31,0.00
2013-3-5,35,33,29,34,32,28,99,97,91,0.00,40.00,30,10,42,0.00
2013-3-6,33,30,27,29,25,24,98,83,74,0.00,40.00,23,12,34,0.00
2013-3-7,39,32,27,28,26,24,92,79,58,0.00,40.00,11,4,14,0.00
2013-3-8,46,36,26,35,30,25,99,80,58,0.00,40.00,13,5,21,0.00
2013-3-9,54,44,39,44,39,32,99,82,60,0.00,40.00,16,8,32,0.00
2013-3-10,53,50,45,53,49,43,100,98,72,0.00,40.00,16,6,26,0.00
2013-3-11,49,39,33,49,38,28,100,96,86,0.00,40.00,26,18,34,0.00
2013-3-12,39,33,28,34,27,21,93,79,61,0.00,40.00,31,15,39,0.00
2013-3-13,26,26,26,22,22,21,86,84,82,0.00,40.00,14,12,24,0.00
2013-3-14,46,40,30,33,29,26,87,68,48,0.00,40.00,15,7,21,0.00
2013-3-15,55,42,32,45,36,31,98,82,54,0.00,40.00,10,4,15,0.00
2013-3-16,44,38,33,44,34,29,99,89,70,0.00,40.00,18,10,27,0.00
2013-3-17,39,34,31,31,27,25,87,77,63,0.00,40.00,12,7,24,0.00
2013-3-18,40,34,28,38,31,16,99,88,62,0.00,40.00,23,10,38,0.00
2013-3-19,40,30,22,18,14,12,67,52,32,0.00,40.00,25,16,39,0.00
2013-3-30,57,54,50,48,41,-100,92,69,53,0.00,40.00,20,13,33,0.00
2013-3-31,60,52,43,48,41,27,98,71,35,0.00,40.00,25,13,39,0.00
2013-4-1,43,38,32,30,22,17,81,55,37,0.00,40.00,23,15,30,0.00
2013-4-2,48,38,28,25,20,15,81,50,27,0.00,40.00,22,8,26,0.00
2013-4-3,54,41,28,24,21,17,83,49,24,0.00,40.00,12,6,19,0.00
2013-4-4,60,46,29,35,27,22,85,51,27,0.00,40.00,11,4,16,0.00
2013-4-5,61,50,39,39,32,22,88,54,30,0.00,40.00,19,7,28,0.00
2013-4-6,72,58,44,55,36,23,87,46,35,0.00,40.00,27,13,47,0.00
2013-4-7,72,59,46,55,46,42,99,67,36,0.00,40.00,25,6,32,0.00
2013-4-8,74,64,58,63,56,42,99,76,54,0.00,40.00,24,12,36,0.00
2013-4-9,76,67,58,64,61,53,99,81,57,0.00,40.00,28,9,39,0.00
2013-4-10,58,47,42,56,47,42,100,98,92,0.00,40.00,24,10,34,0.00
2013-4-11,51,46,41,50,44,34,99,93,76,0.00,40.00,23,11,34,0.00
2013-4-12,44,42,40,40,36,34,98,81,67,0.00,40.00,24,16,33,0.00
2013-4-13,53,45,37,36,32,25,81,61,44,0.00,40.00,23,12,34,0.00
2013-4-14,78,62,47,54,45,36,87,57,34,0.00,40.00,19,9,35,0.00
2013-4-15,67,56,47,58,53,45,99,91,60,0.00,40.00,19,9,39,0.00
2013-4-16,54,49,43,46,42,37,99,78,52,0.00,40.00,14,8,21,0.00
2013-4-17,58,50,46,58,47,39,99,90,77,0.00,40.00,30,8,49,0.00
2013-4-18,64,55,42,63,54,35,99,95,76,0.00,40.00,32,14,43,0.00
2013-4-19,42,40,38,37,32,27,83,72,63,0.00,40.00,32,20,44,0.00
2013-4-20,52,43,33,32,27,23,87,57,35,0.00,40.00,14,6,24,0.00
2013-4-21,60,49,39,39,34,29,73,57,45,0.00,40.00,16,10,29,0.00
2013-4-22,70,58,46,46,39,35,75,51,29,0.00,40.00,14,8,27,0.00
2013-4-23,61,49,41,55,47,40,99,95,57,0.00,40.00,20,10,26,0.00
2013-4-24,51,44,38,41,35,28,99,72,46,0.00,40.00,18,12,25,0.00
2013-4-25,57,49,43,39,33,26,81,56,36,0.00,40.00,25,13,36,0.00
2013-4-26,63,54,46,50,42,34,87,64,56,0.00,40.00,21,9,29,0.00
2013-4-27,66,56,47,55,49,41,99,81,42,0.00,40.00,13,5,23,0.00
2013-4-28,72,59,53,59,54,50,99,85,48,0.00,40.00,18,6,23,0.00
2013-4-29,76,63,50,60,55,50,99,78,50,0.00,40.00,16,9,36,0.00
2013-4-30,85,74,62,62,57,50,97,60,31,0.00,40.00,28,13,37,0.00
2013-5-1,85,73,62,61,56,50,95,60,30,0.00,40.00,15,6,24,0.00
2013-5-2,70,62,51,63,58,51,99,84,65,0.00,40.00,16,7,24,0.00
2013-5-3,63,52,45,62,52,45,100,99,99,0.00,40.00,11,6,24,0.00
2013-5-4,68,61,56,61,58,55,99,92,67,0.00,40.00,13,6,24,0.00
2013-5-5,76,63,55,60,54,44,99,76,32,0.00,40.00,13,5,24,0.00
2013-5-6,80,67,56,56,50,39,97,60,26,0.00,40.00,14,5,23,0.00
2013-5-7,83,67,53,54,47,37,86,55,24,0.00,40.00,9,3,15,0.00
2013-5-8,84,69,54,60,51,40,99,61,23,0.00,40.00,7,2,9,0.00
2013-5-9,74,66,63,66,63,57,99,92,61,0.00,40.00,19,5,29,0.00
2013-5-10,65,57,53,64,54,-100,99,95,88,0.00,40.00,14,9,22,0.00
2013-5-11,61,55,50,54,39,-100,96,63,29,0.00,40.00,29,14,40,0.00
2013-5-12,59,51,42,37,30,25,76,47,31,0.00,40.00,19,10,32,0.00
2013-5-13,72,57,40,45,37,29,96,54,25,0.00,40.00,16,5,21,0.00
2013-5-14,86,72,58,64,55,39,79,58,44,0.00,40.00,20,10,26,0.00
2013-5-15,86,76,66,63,60,56,86,58,38,0.00,40.00,24,9,34,0.00
2013-5-16,86,66,61,66,39,-100,99,70,30,0.00,40.00,14,4,19,0.00
2013-5-17,84,72,62,69,56,-100,99,72,40,0.00,40.00,13,4,18,0.00
2013-5-18,85,74,65,69,65,61,99,77,45,0.00,40.00,11,3,15,0.00
2013-5-19,91,79,66,73,68,65,99,72,47,0.00,40.00,13,6,32,0.00
2013-5-20,87,76,63,73,64,61,100,70,43,0.00,40.00,32,12,69,0.00
2013-5-21,82,72,63,69,65,61,99,79,53,0.00,40.00,19,9,26,0.00
2013-5-22,74,68,61,69,62,54,99,81,54,0.00,40.00,23,10,31,0.00
2013-5-23,65,60,51,61,56,50,99,86,62,0.00,40.00,14,8,22,0.00
2013-5-24,71,57,42,51,42,36,99,63,30,0.00,40.00,12,3,19,0.00
2013-5-25,57,52,49,55,46,34,99,81,51,0.00,40.00,14,4,21,0.00
2013-5-26,67,58,51,61,56,49,99,93,80,0.00,40.00,17,5,27,0.00
2013-5-27,73,64,59,69,64,59,99,97,80,0.00,40.00,24,5,34,0.00
2013-5-28,76,71,66,74,68,65,99,92,74,0.00,40.00,27,10,45,0.00
2013-5-29,87,75,63,70,67,63,100,79,51,0.00,40.00,20,8,30,0.00
2013-5-30,85,76,64,72,69,62,99,80,61,0.00,40.00,21,10,40,0.00
2013-5-31,76,70,64,75,68,64,99,94,76,0.00,40.00,25,7,29,0.00
2013-6-1,73,69,65,72,65,-100,99,91,67,0.00,40.00,21,9,30,0.00
2013-6-2,65,62,57,64,58,51,99,86,70,0.00,40.00,19,8,27,0.00
2013-6-3,71,62,50,54,48,42,100,66,41,0.00,40.00,11,3,15,0.00
2013-6-4,76,66,54,60,52,47,98,64,39,0.00,40.00,11,4,19,0.00
2013-6-5,81,70,58,66,61,57,99,76,48,0.00,40.00,9,3,15,0.00
2013-6-6,76,66,60,64,60,57,99,82,58,0.00,40.00,13,4,19,0.00
2013-6-7,76,66,56,60,56,54,95,74,49,0.00,40.00,13,5,18,0.00
2013-6-8,83,69,53,63,54,48,90,61,38,0.00,40.00,6,2,8,0.00
2013-6-9,83,72,65,69,62,58,94,73,44,0.00,40.00,23,7,29,0.00
2013-6-10,82,71,63,66,63,60,99,78,47,0.00,40.00,11,4,15,0.00
2013-6-11,90,75,61,78,68,61,99,83,47,0.00,40.00,11,4,19,0.00
2013-6-12,90,82,71,75,72,68,99,76,48,0.00,40.00,26,10,37,0.00
2013-6-13,86,78,68,74,62,53,96,64,35,0.00,40.00,18,8,32,0.00
2013-6-14,84,72,59,65,58,54,97,65,37,0.00,40.00,17,3,31,0.00
2013-6-15,78,73,68,74,67,57,99,82,62,0.00,40.00,24,7,50,0.00
2013-6-16,84,75,67,72,70,67,99,85,62,0.00,40.00,14,6,19,0.00
2013-6-17,89,78,66,73,66,57,99,72,34,0.00,40.00,8,2,12,0.00
2013-6-18,86,76,67,71,62,56,99,67,44,0.00,40.00,8,4,18,0.00
2013-6-19,88,74,57,66,60,53,90,65,33,0.00,40.00,9,3,15,0.00
2013-6-20,88,84,74,70,66,58,70,55,46,0.00,40.00,10,6,15,0.00
2013-6-22,89,80,71,78,73,68,92,81,66,0.00,40.00,11,6,23,0.00
2013-6-23,90,76,70,75,71,68,99,87,54,0.00,40.00,16,6,24,0.00
2013-6-24,87,74,68,77,71,67,100,92,66,0.00,40.00,18,5,24,0.00
2013-6-25,87,79,72,77,74,69,99,86,64,0.00,40.00,18,7,31,0.00
2013-6-26,89,79,70,78,74,68,99,86,57,0.00,40.00,21,6,27,0.00
2013-6-27,89,82,75,77,71,65,99,74,45,0.00,40.00,15,7,24,0.00
2013-6-28,85,78,70,72,64,57,96,63,39,0.00,40.00,18,10,27,0.00
2013-6-29,78,71,67,70,67,63,99,88,67,0.00,40.00,17,6,27,0.00
2013-6-30,83,72,63,67,62,57,96,74,48,0.00,40.00,11,5,21,0.00
2013-7-1,82,72,63,61,54,51,81,57,36,0.00,40.00,10,6,24,0.00
2013-7-2,80,69,62,60,58,53,91,68,46,0.00,40.00,9,4,19,0.00
2013-7-3,83,70,60,62,58,51,98,70,34,0.00,40.00,5,2,11,0.00
2013-7-4,88,76,64,66,63,59,97,67,43,0.00,40.00,9,4,17,0.00
2013-7-5,89,78,67,71,64,59,99,67,37,0.00,40.00,9,4,14,0.00
2013-7-6,89,76,66,73,69,65,99,80,46,0.00,40.00,8,4,16,0.00
2013-7-7,92,81,70,75,71,66,92,74,50,0.00,40.00,18,6,22,0.00
2013-7-8,87,79,73,78,73,-100,99,87,67,0.00,40.00,21,8,29,0.00
2013-7-9,93,83,78,81,78,76,98,87,58,0.00,40.00,10,5,19,0.00
2013-7-10,91,81,71,80,67,-100,96,69,46,0.00,40.00,16,5,24,0.00
2013-7-11,86,75,64,69,62,56,99,68,37,0.00,40.00,9,3,18,0.00
2013-7-12,88,74,59,63,58,51,99,64,30,0.00,40.00,7,2,11,0.00
2013-7-13,89,77,63,68,62,58,96,63,36,0.00,40.00,6,2,13,0.00
2013-7-14,94,81,68,74,69,66,99,68,43,0.00,40.00,7,3,14,0.00
2013-7-15,93,82,73,80,76,72,99,83,55,0.00,40.00,13,2,16,0.00
2013-7-16,97,88,76,78,74,71,99,65,46,0.00,40.00,9,4,12,0.00
2013-7-17,98,87,74,78,75,72,99,70,44,0.00,40.00,6,2,9,0.00
2013-7-18,96,88,76,80,76,73,99,69,50,0.00,40.00,15,6,19,0.00
2013-7-19,95,89,80,78,75,69,93,66,44,0.00,40.00,22,11,29,0.00
2013-7-20,93,83,74,79,68,-100,95,65,39,0.00,40.00,11,4,16,0.00
2013-7-21,84,76,68,77,72,68,99,89,68,0.00,40.00,4,2,11,0.00
2013-7-22,91,80,68,79,71,67,99,77,47,0.00,40.00,23,6,36,0.00
2013-7-23,84,76,68,71,67,62,99,78,54,0.00,40.00,14,5,21,0.00
2013-7-24,67,62,59,63,61,59,99,94,79,0.00,40.00,4,2,11,0.00
2013-7-25,85,80,71,61,57,54,71,48,35,0.00,40.00,9,3,11,0.00
2013-7-26,75,69,65,72,66,62,99,90,73,0.00,40.00,14,6,21,0.00
2013-7-27,68,64,60,63,55,47,99,73,47,0.00,40.00,15,8,24,0.00
2013-7-28,74,65,57,58,53,51,92,68,48,0.00,40.00,15,10,24,0.00
2013-7-29,81,68,55,63,55,50,99,68,36,0.00,40.00,7,2,13,0.00
2013-7-30,70,68,65,70,66,58,99,93,68,0.00,40.00,9,4,17,0.00
2013-7-31,80,72,69,73,70,68,99,92,70,0.00,40.00,6,2,12,0.00
2013-8-1,84,75,65,71,63,54,99,72,40,0.00,40.00,14,4,20,0.00
2013-8-2,87,77,69,77,70,65,99,79,54,0.00,40.00,20,9,24,0.00
2013-8-3,85,75,65,73,64,57,99,73,41,0.00,40.00,11,3,16,0.00
2013-8-4,85,73,61,66,60,54,99,69,36,0.00,40.00,6,2,10,0.00
2013-8-5,78,70,63,71,65,61,99,83,59,0.00,40.00,13,4,17,0.00
2013-8-6,90,77,69,76,72,68,99,85,56,0.00,40.00,9,4,15,0.00
2013-8-7,90,80,74,78,75,69,99,84,52,0.00,40.00,11,5,17,0.00
2013-8-8,86,75,67,71,67,61,99,77,53,0.00,40.00,6,3,13,0.00
2013-8-9,87,75,62,71,64,55,96,71,39,0.00,40.00,9,2,11,0.00
2013-8-10,86,76,65,72,63,56,99,70,41,0.00,40.00,10,3,16,0.00
2013-8-11,89,75,60,69,62,57,99,70,37,0.00,40.00,7,3,12,0.00
2013-8-21,90,80,70,73,70,68,98,75,49,0.00,40.00,16,7,20,0.00
2013-8-22,82,76,71,74,72,68,99,88,70,0.00,40.00,11,4,17,0.00
2013-8-23,88,76,66,74,67,62,99,76,46,0.00,40.00,13,3,19,0.00
2013-8-24,91,76,62,71,62,-100,99,68,46,0.00,40.00,16,4,24,0.00
2013-8-25,93,80,69,70,68,66,93,69,44,0.00,40.00,11,5,16,0.00
2013-8-26,94,82,70,77,72,67,97,75,50,0.00,40.00,14,6,20,0.00
2013-8-27,94,82,77,77,76,73,97,83,53,0.00,40.00,12,7,19,0.00
2013-9-21,73,62,55,55,48,-100,96,67,39,0.00,40.00,11,6,19,0.00
2013-9-22,75,60,47,55,50,47,99,74,39,0.00,40.00,16,3,26,0.00
2013-9-23,79,63,49,51,48,44,99,63,31,0.00,40.00,16,4,24,0.00
2013-9-24,78,64,51,62,53,44,95,71,30,0.00,40.00,10,4,18,0.00
2013-9-25,84,67,55,58,53,49,98,66,30,0.00,40.00,9,4,16,0.00
2013-9-26,86,68,54,58,52,47,91,63,27,0.00,40.00,6,3,11,0.00
2013-9-27,86,71,55,54,48,41,87,50,22,0.00,40.00,10,3,19,0.00
2013-10-12,73,65,56,66,53,-100,99,73,32,0.00,40.00,14,6,20,0.00
2013-10-13,72,56,44,47,42,34,99,67,26,0.00,40.00,6,3,14,0.00
2013-10-14,69,55,41,48,41,34,99,65,27,0.00,40.00,11,3,16,0.00
2013-10-15,70,61,54,62,52,44,98,72,55,0.00,40.00,21,9,26,0.00
2013-10-16,54,52,50,47,46,44,82,78,73,0.00,40.00,17,11,26,0.00
2013-10-17,61,53,47,50,45,36,99,78,40,0.00,40.00,15,7,21,0.00
2013-10-18,57,49,45,48,43,37,99,80,52,0.00,40.00,16,7,22,0.00
2013-10-31,65,58,47,62,56,44,93,91,86,0.00,40.00,17,10,30,0.00
2013-11-1,53,49,46,47,44,40,92,84,62,0.00,40.00,19,11,24,0.00
2013-11-2,52,44,38,44,35,-100,99,76,45,0.00,40.00,17,7,25,0.00
2013-11-3,56,44,31,46,34,31,100,72,40,0.00,40.00,10,4,19,0.00
2013-11-4,60,53,46,47,41,35,75,64,49,0.00,40.00,19,9,31,0.00
2013-11-5,56,54,53,55,52,47,99,92,76,0.00,40.00,12,6,24,0.00
2013-11-6,57,49,36,57,45,28,99,88,60,0.00,40.00,19,10,34,0.00
2013-12-22,34,30,21,33,29,20,99,96,91,0.00,40.00,19,8,24,0.00
2013-12-23,21,13,5,19,8,-3,93,81,67,0.00,40.00,19,12,24,0.00
2013-12-24,21,11,0,13,3,-5,80,72,64,0.00,40.00,12,6,19,0.00
2013-12-25,30,27,21,30,24,12,99,89,68,0.00,40.00,19,12,33,0.00
2013-12-26,40,31,21,34,26,17,97,81,60,0.00,40.00,16,8,27,0.00
2013-12-27,45,35,28,35,32,28,99,88,67,0.00,40.00,14,8,17,0.00
2013-12-28,53,41,34,36,34,32,97,76,47,0.00,40.00,14,8,22,0.00